Location: Brachstadt
(48.6975°N, 10.6755°E)
Time: 05:10:58
(UTC+00:00)

Ariane Rocket - Pass Details

Date: 18 September 2020
Orbit: 760 x 769 km, 98.7° (Epoch: 27 October)

Event Time Altitude Azimuth Distance (km) Brightness Sun altitude
Exits shadow 18:09:45 - 140° (SE) 2,861 5.5 -8.5°
Reaches altitude 10° 18:11:14 10° 135° (SE) 2,296 5.0 -8.7°
Maximum altitude 18:15:56 41° 66° (ENE) 1,104 3.5 -9.5°
Drops below altitude 10° 18:20:42 10° 358° (N) 2,316 5.7 -10.2°
Sets 18:23:07 0° 351° (N) 3,249 6.6 -10.6°
